LYPGLQSA

Guest
Details From LYPG - Podgorica
To LQSA - Sarajevo
Flight Number -
Tags generated
Created
Modified
Stats Distance 97 nm / 179 km
Max Altitude 500 ft / 152 m
Waypoints 3
Social Downloads 1
Likes 0
Share VATSIM

Download

Looking for another format? Having issues loading an existing format? Contact us
Advertisement - Login to hide

Notes

Basic altitude profile: - Ascent Rate: 2500ft/min - Ascent Speed: 250kts - Cruise Altitude: 35000ft - Cruise Speed: 420kts - Descent Rate: 1500ft/min - Descent Speed: 250kts Options: - Use NATs: yes - Use PACOTS: yes - Use low airways: yes - Use high airways: yes

Route

LYPG POD LQSA

ID Type Via Altitude Latitude Longitude Leg Dist Tot Dist Heading (true) Name
O LYPG APT - 0 ft / 0 m 42.36795˚ 19.27572˚ - 0 nm - Podgorica
POD VOR - 500 ft / 152 m 42.38619˚ 19.25461˚ 1 nm 1 nm 319° / 319° PODGORICA VOR-DME
O LQSA APT - 0 ft / 0 m 43.82460˚ 18.33150˚ 95 nm 96 nm 335° / 335° Sarajevo

Altitude Profile

Advertisement - Login to hide

LYPG

Details ICAO LYPG (TGD)
Name Podgorica
Region Serbia and Montenegro
Timezone Europe/Podgorica (UTC+2.0)
Stats Elevation 141 ft / 43 m (AMSL)
Location 42.367947° 19.275721°
Runways 2
Magnetic Variation 4.296° E

METAR

LYPG 270130Z 36005KT CAVOK 20/13 Q1018 NOSIG

Decode

TAF

TAF LYPG 262300Z 2700/2724 36005KT CAVOK TX32/2714Z TN16/2703Z PROB40 TEMPO 2713/2717 TS FEW033CB SCT040

Decode

Departure Runways

ID Width Length Bearing (true) Bearing (mag) Surface Threshold Offset Overrun Length
08 50 ft / 15 m 7,130 ft / 2,173 m 85.78° 81.48° Asphalt 200 ft / 61 m 0 ft / 0 m
18 148 ft / 45 m 8,214 ft / 2,504 m 184.30° 180.00° Asphalt 250 ft / 76 m 0 ft / 0 m
26 50 ft / 15 m 7,130 ft / 2,173 m 265.79° 261.49° Asphalt 200 ft / 61 m 0 ft / 0 m
36 148 ft / 45 m 8,214 ft / 2,504 m 4.30° 0.00° Asphalt 250 ft / 76 m 0 ft / 0 m

LQSA

Details ICAO LQSA (SJJ)
Name Sarajevo
Region Bosnia and Herzegovinia
Timezone Europe/Sarajevo (UTC+2.0)
Stats Elevation 1,708 ft / 521 m (AMSL)
Location 43.824597° 18.331500°
Runways 1
Magnetic Variation 4.270° E

METAR

LQSA 270100Z VRB01KT 7000 NSC 13/13 Q1022

Decode

TAF

Not found

Destination Runways

ID Width Length Bearing (true) Bearing (mag) Surface Threshold Offset Overrun Length
12 150 ft / 46 m 8,519 ft / 2,597 m 117.41° 113.14° Asphalt 333 ft / 102 m 0 ft / 0 m
30 150 ft / 46 m 8,519 ft / 2,597 m 297.43° 293.16° Asphalt 666 ft / 203 m 0 ft / 0 m

Approach Navaids

Runway Type Ident Frequency Range Bearing (true) Bearing (mag) Slope Elevation
12 Localiser BHS 110.70 MHz 25 nm / 46 km 117.00° 112.73° - 1,709 ft / 521 m (AMSL)
12 Glidescope BHS 110.70 MHz 25 nm / 46 km 117.00° 112.73° 3.20° 1,705 ft / 520 m (AMSL)
12 DME BHS 110.70 MHz 25 nm / 46 km - - - 1,705 ft / 520 m (AMSL)

Popular Alternatives